TimeEST,TemperatureF,Dew PointF,Humidity,Sea Level PressureIn,VisibilityMPH,Wind Direction,Wind SpeedMPH,Gust SpeedMPH,PrecipitationIn,Events,Conditions,WindDirDegrees,DateUTC
12:15 AM,35.6,30.2,81,29.70,10.0,Calm,Calm,-,N/A,,Overcast,0,2013-02-12 05:15:00
12:51 AM,37.0,28.0,70,29.71,10.0,NNW,4.6,-,N/A,,Overcast,340,2013-02-12 05:51:00
1:51 AM,36.0,28.0,73,29.71,10.0,West,3.5,-,N/A,,Overcast,270,2013-02-12 06:51:00
2:51 AM,35.1,28.0,76,29.71,10.0,SW,3.5,-,0.00,Snow,Light Snow,230,2013-02-12 07:51:00
3:51 AM,36.0,28.0,73,29.71,10.0,Calm,Calm,-,0.00,,Overcast,0,2013-02-12 08:51:00
4:51 AM,36.0,28.0,73,29.72,10.0,WSW,3.5,-,N/A,,Overcast,240,2013-02-12 09:51:00
5:51 AM,37.0,27.0,67,29.73,10.0,West,4.6,-,0.00,Snow,Light Snow,280,2013-02-12 10:51:00
6:51 AM,37.0,25.0,62,29.73,10.0,WNW,10.4,-,0.00,,Mostly Cloudy,290,2013-02-12 11:51:00
7:51 AM,37.0,25.0,62,29.76,10.0,West,9.2,18.4,N/A,,Mostly Cloudy,280,2013-02-12 12:51:00
8:51 AM,37.0,26.1,65,29.77,10.0,West,17.3,27.6,N/A,,Overcast,270,2013-02-12 13:51:00
9:51 AM,37.0,26.1,65,29.81,10.0,West,16.1,31.1,N/A,,Overcast,270,2013-02-12 14:51:00
10:51 AM,37.0,27.0,67,29.82,10.0,WNW,15.0,21.9,N/A,,Overcast,290,2013-02-12 15:51:00
11:25 AM,37.4,26.6,65,29.82,10.0,West,18.4,23.0,N/A,,Overcast,270,2013-02-12 16:25:00
11:39 AM,37.4,26.6,65,29.81,10.0,West,16.1,24.2,N/A,,Overcast,270,2013-02-12 16:39:00
11:51 AM,37.0,27.0,67,29.83,10.0,West,18.4,29.9,N/A,,Overcast,280,2013-02-12 16:51:00
12:19 PM,37.4,26.6,65,29.83,10.0,WNW,19.6,26.5,N/A,,Overcast,290,2013-02-12 17:19:00
12:51 PM,37.0,27.0,67,29.84,10.0,WNW,18.4,28.8,N/A,,Overcast,290,2013-02-12 17:51:00
1:51 PM,36.0,27.0,70,29.86,10.0,West,18.4,29.9,N/A,,Overcast,270,2013-02-12 18:51:00
2:28 PM,37.4,26.6,65,29.86,10.0,West,16.1,27.6,N/A,,Overcast,270,2013-02-12 19:28:00
2:51 PM,36.0,26.1,67,29.87,10.0,WNW,16.1,24.2,N/A,,Overcast,290,2013-02-12 19:51:00
3:30 PM,35.6,26.6,70,29.86,9.0,WNW,15.0,27.6,0.00,Snow,Light Snow,290,2013-02-12 20:30:00
3:51 PM,36.0,26.1,67,29.86,10.0,WNW,11.5,19.6,0.00,Snow,Light Snow,300,2013-02-12 20:51:00
4:51 PM,36.0,24.1,62,29.85,10.0,NW,9.2,-,0.00,,Overcast,310,2013-02-12 21:51:00
5:51 PM,35.1,25.0,67,29.86,10.0,WNW,10.4,-,N/A,,Overcast,290,2013-02-12 22:51:00
6:51 PM,35.1,23.0,61,29.90,10.0,West,16.1,27.6,N/A,,Mostly Cloudy,270,2013-02-12 23:51:00
7:51 PM,35.1,21.9,59,29.94,10.0,WSW,13.8,-,N/A,,Overcast,250,2013-02-13 00:51:00
8:51 PM,34.0,23.0,64,29.94,10.0,West,10.4,-,N/A,,Overcast,280,2013-02-13 01:51:00
9:51 PM,33.1,23.0,66,29.92,10.0,WNW,8.1,-,0.00,,Mostly Cloudy,300,2013-02-13 02:51:00
10:51 PM,33.1,23.0,66,29.91,10.0,West,8.1,-,N/A,,Mostly Cloudy,270,2013-02-13 03:51:00
11:51 PM,33.1,23.0,66,29.91,10.0,WNW,8.1,-,0.00,Snow,Light Snow,290,2013-02-13 04:51:00